Elkins, WV

10:44 AM EDT on March 30, 2017 (GMT -0400)
Elkins-Randolph County

Weather History for KEKN - June, 2014

Change the Weather History Date:

Saturday, June 7, 2014

  Actual Average Record
Temperature  
Mean Temperature 64 °F 64 °F  
Max Temperature 81 °F 76 °F 90 °F (1933)
Min Temperature 46 °F 53 °F 34 °F (1945)
Degree Days  
Heating Degree Days 1 3  
Month to date heating degree days 9 24  
Since 1 June heating degree days 9 24  
Since 1 July heating degree days 5997 5821  
Cooling Degree Days 0 2  
Month to date cooling degree days 11 13  
Year to date cooling degree days 47 36  
Since 1 June cooling degree days 11 13  
Growing Degree Days 14 (Base 50)    
Moisture  
Dew Point 49 °F    
Average Humidity 64    
Maximum Humidity 93    
Minimum Humidity 35    
Precipitation  
Precipitation 0.00 in 0.14 in 1.03 in (2003)
Month to date precipitation 0.99 1.00  
Year to date precipitation 16.33 20.21  
Snow  
Snow 0.00 in - - ()
Month to date snowfall 0.0  
Since 1 September snowfall 92.3  
Snow Depth 0.00 in    
Sea Level Pressure  
Sea Level Pressure 30.06 in    
Wind  
Wind Speed 1 mph (West)    
Max Wind Speed 9 mph    
Max Gust Speed 12 mph    
Visibility 6 miles    
Events Fog    
T = Trace of Precipitation, MM = Missing Value Source: NWS Daily Summary

Daily Weather History Graph

Daily Weather History Graph

Search for Another Location

Airport or City:

Trip Planner

Search our weather history database for the weather conditions in past years. The results will help you decide how hot, cold, wet, or windy it might be!

Date:

Astronomy

Jun. 07, 2014 Rise Set
Actual Time 5:54 AM EDT 8:42 PM EDT
Civil Twilight 5:22 AM EDT 9:14 PM EDT
Nautical Twilight 4:42 AM EDT 9:54 PM EDT
Astronomical Twilight 3:57 AM EDT 10:39 PM EDT
Moon 3:01 PM EDT (6/7) 2:11 AM EDT (6/7)
Length of Visible Light 15h 51m
Length of Day
14h 48m
Waxing Gibbous, 67% of the Moon is Illuminated
Jun 7
Waxing Gibbous
Jun 13
Full
Jun 19
Last Quarter
Jun 27
New
Jul 5
First Quarter

Hourly Weather History & Observations

Time (EDT) Temp. Dew Point Humidity Pressure Visibility Wind Dir Wind Speed Gust Speed Precip Events Conditions
12:51 AM 50.0 °F 46.9 °F 89% 30.09 in 10.0 mi Calm Calm - N/A   Clear
1:51 AM 48.9 °F 46.0 °F 90% 30.08 in 8.0 mi Calm Calm - N/A   Clear
2:51 AM 48.0 °F 45.0 °F 89% 30.09 in 5.0 mi Calm Calm - N/A   Clear
3:28 AM 46.9 °F 45.0 °F 93% 30.07 in 2.5 mi Calm Calm - N/A   Scattered Clouds
3:30 AM 48.0 °F 45.0 °F 89% 30.07 in 1.0 mi Calm Calm - N/A   Mist
3:38 AM 48.0 °F 45.0 °F 89% 30.07 in 0.2 mi Calm Calm - N/A Fog Fog
3:51 AM 46.9 °F 45.0 °F 93% 30.07 in 0.2 mi Calm Calm - N/A Fog Fog
4:19 AM 46.9 °F 44.1 °F 90% 30.07 in 1.0 mi Calm Calm - N/A   Mist
4:34 AM 46.0 °F 44.1 °F 93% 30.07 in 3.0 mi Calm Calm - N/A   Mostly Cloudy
4:43 AM 46.0 °F 43.0 °F 89% 30.07 in 6.0 mi Calm Calm - N/A   Scattered Clouds
4:51 AM 46.0 °F 43.0 °F 89% 30.08 in 9.0 mi Calm Calm - N/A   Partly Cloudy
5:08 AM 46.0 °F 44.1 °F 93% 30.08 in 5.0 mi Calm Calm - N/A   Mostly Cloudy
5:21 AM 46.0 °F 44.1 °F 93% 30.08 in 1.8 mi Calm Calm - N/A   Overcast
5:33 AM 46.9 °F 44.1 °F 90% 30.09 in 0.5 mi Calm Calm - N/A Fog Fog
5:47 AM 46.4 °F 44.6 °F 93% 30.09 in 2.0 mi Calm Calm - N/A   Overcast
5:51 AM 46.0 °F 44.1 °F 93% 30.09 in 5.0 mi Calm Calm - N/A   Overcast
6:00 AM 46.9 °F 45.0 °F 93% 30.09 in 1.2 mi Calm Calm - N/A   Overcast
6:03 AM 46.9 °F 45.0 °F 93% 30.09 in 0.2 mi Calm Calm - N/A Fog Fog
6:26 AM 48.0 °F 46.0 °F 93% 30.10 in 0.5 mi Calm Calm - N/A Fog Fog
6:33 AM 48.0 °F 46.0 °F 93% 30.10 in 0.2 mi Calm Calm - N/A Fog Fog
6:51 AM 48.0 °F 46.9 °F 96% 30.11 in 0.2 mi Calm Calm - N/A Fog Fog
7:34 AM 50.0 °F 48.0 °F 93% 30.10 in 0.5 mi Calm Calm - N/A Fog Fog
7:59 AM 50.0 °F 48.0 °F 93% 30.10 in 4.0 mi Calm Calm - N/A   Overcast
8:10 AM 52.0 °F 48.9 °F 89% 30.10 in 2.5 mi Calm Calm - N/A   Overcast
8:20 AM 52.0 °F 48.9 °F 89% 30.11 in 1.0 mi Calm Calm - N/A   Overcast
8:51 AM 53.6 °F 50.0 °F 88% 30.11 in 3.0 mi Calm Calm - N/A   Overcast
9:15 AM 55.9 °F 51.1 °F 84% 30.11 in 10.0 mi Calm Calm - N/A   Scattered Clouds
9:51 AM 62.6 °F 53.6 °F 72% 30.12 in 10.0 mi Calm Calm - N/A   Clear
10:51 AM 69.1 °F 53.1 °F 57% 30.09 in 10.0 mi Calm Calm - N/A   Clear
11:51 AM 73.9 °F 53.1 °F 48% 30.07 in 10.0 mi Variable 3.5 mph - N/A   Clear
12:51 PM 75.9 °F 52.0 °F 43% 30.06 in 10.0 mi Variable 4.6 mph - N/A   Clear
1:51 PM 78.1 °F 48.9 °F 36% 30.04 in 10.0 mi Calm Calm - N/A   Clear
2:51 PM 80.1 °F 51.1 °F 36% 30.01 in 10.0 mi Calm Calm - N/A   Clear
3:51 PM 79.0 °F 51.1 °F 38% 30.00 in 10.0 mi Calm Calm - N/A   Clear
4:51 PM 80.1 °F 51.1 °F 36% 29.99 in 10.0 mi SW 3.5 mph - N/A   Clear
5:51 PM 80.6 °F 51.8 °F 37% 29.99 in 10.0 mi West 4.6 mph - N/A   Clear
6:51 PM 78.1 °F 54.0 °F 43% 29.98 in 10.0 mi NW 4.6 mph - N/A   Clear
7:51 PM 75.9 °F 57.0 °F 52% 29.99 in 10.0 mi NW 3.5 mph - N/A   Partly Cloudy
8:51 PM 64.9 °F 57.0 °F 75% 30.00 in 10.0 mi Calm Calm - N/A   Partly Cloudy
9:51 PM 63.0 °F 57.0 °F 81% 30.00 in 10.0 mi WSW 3.5 mph - N/A   Scattered Clouds
10:51 PM 60.1 °F 55.9 °F 86% 29.99 in 10.0 mi Calm Calm - N/A   Clear
11:51 PM 57.9 °F 55.0 °F 90% 29.99 in 10.0 mi Calm Calm - N/A   Clear